{"data":{"norad_id":54687,"intl_designator":"2022-167F","name":"2022-167F","alt_names":[],"object_type":"PAYLOAD","status":"ACTIVE","operator":null,"country":"PRC","launch_date":"2022-12-09","launch_site_code":"SEAL","launch_vehicle":null,"mission":null,"orbit_class":"UNKNOWN","rcs_meters":null,"size_class":null,"mass_kg":null,"dimensions":null,"purposes":[],"wikipedia_slug":null,"has_3d_model":false,"image_url":null,"decayed_at":null,"tle_current":{"epoch":"2026-07-18T09:21:25.252704Z","epoch_age_seconds":5701451,"freshness":"OLD","line1":"1 54687U 22167F   26199.38987561  .06849805  26455-5  91516-3 0  9994","line2":"2 54687  97.5951  31.7738 0010299 263.4194  96.5930 16.35361496201837","mean_motion":16.35361496,"eccentricity":0.0010299,"inclination_deg":97.5951,"raan_deg":31.7738,"arg_perigee_deg":263.4194,"mean_anomaly_deg":96.593,"bstar":0.00091516,"rev_number":20183,"period_min":88.053925907034,"perigee_km":171.41838172914,"apogee_km":184.92306437709,"semimajor_km":6556.3077230531,"source":"CELESTRAK","updated_at":"2026-07-19T09:00:24.797325Z"}}}